This demonstration page uses our WeatherBlox Daily Observations layout. Learn more.

Left ArrowRight Arrow

40.92501, -98.34201

Hourly Observations for September 16, 2022

Temp ( °F °C ) Dew Point ( °F °C ) Humidity (%) Winds ( mph kmh ) Pressure ( in mb ) Visibility ( mi km ) Precip ( " mm )
12:53 am 00:53 Cloudy with Light Rain 66 18.9 62 16.7 87 87 WSW 13 20 29.96 1014 10 16 0.01 0.13
3:53 am 03:53 Clear 65 18.3 62 16.7 90 90 Calm 29.91 1013 10 16 0.01 0.13
5:53 am 05:53 Clear 64 17.8 62 16.7 93 93 E 5 7 29.92 1013 9 14 0.00 0.00
6:53 am 06:53 Clear 64 17.8 61 16.1 90 90 SE 6 9 29.93 1014 10 16 0.00 0.00
7:53 am 07:53 Sunny 63 17.2 61 16.1 93 93 S 3 6 29.95 1014 8 13 0.00 0.00
9:53 am 09:53 Sunny 72 22.2 64 17.8 76 76 S 9 15 29.96 1015 10 16 0.00 0.00
10:53 am 10:53 Sunny 76 24.4 62 16.7 62 62 SW 10 17 29.95 1014 10 16 0.00 0.00
11:53 am 11:53 Sunny 79 26.1 61 16.1 54 54 WSW 14 22 29.94 1014 10 16 0.00 0.00
12:53 pm 12:53 Sunny 82 27.8 62 16.7 51 51 SSW 13 20 29.93 1014 10 16 0.00 0.00
1:53 pm 13:53 Mostly Sunny 82 27.8 62 16.7 51 51 SSE 10 17 29.91 1013 10 16 0.00 0.00
2:53 pm 14:53 Sunny 85 29.4 60 15.6 43 43 S 15 24 29.89 1012 10 16 0.00 0.00
3:53 pm 15:53 Sunny 84 28.9 60 15.6 45 45 S 10 17 29.87 1012 10 16 0.00 0.00
4:53 pm 16:53 Sunny 85 29.4 59 15 42 42 S 10 17 29.86 1011 10 16 0.00 0.00
5:53 pm 17:53 Sunny 85 29.4 59 15 42 42 S 12 19 29.85 1011 10 16 0.00 0.00
6:53 pm 18:53 Sunny 82 27.8 61 16.1 49 49 SSE 8 13 29.85 1011 10 16 0.00 0.00
7:53 pm 19:53 Clear 76 24.4 61 16.1 60 60 SE 7 11 29.83 1010 10 16 0.00 0.00
8:53 pm 20:53 Clear 74 23.3 61 16.1 64 64 SE 9 15 29.85 1011 10 16 0.00 0.00
9:53 pm 21:53 Clear 73 22.8 62 16.7 68 68 SSE 12 19 29.85 1011 10 16 0.00 0.00
10:53 pm 22:53 Clear 72 22.2 63 17.2 73 73 SSE 10 17 29.85 1011 10 16 0.00 0.00
11:53 pm 23:53 Clear 70 21.1 63 17.2 78 78 SE 8 13 29.85 1011 10 16 0.00 0.00

Powered by AerisWeather